DW6193 Weather Reports


Display with metric or nautical units.
time (UTC)temp
F
wind
direction
speed
MPH
gust
MPH
rain 1hr
in
rain 24hr
in
rain mn
in
humidity
%
barometer
mb
20260902234548 58 268 1.0 3.0 0.00 0.00 0.00 1008.8
20260902234027 58 22 1.0 3.0 0.00 0.00 0.00 1008.7
20260902233527 58 280 1.0 4.0 0.00 0.00 0.00 1008.7
20260902233046 58 12 1.0 4.0 0.00 0.00 0.00 1008.7
20260902232529 57 299 1.0 8.0 0.00 0.00 0.00 1008.7
20260902232025 57 268 1.0 8.0 0.00 0.00 0.00 1008.7
20260902231555 57 302 2.0 10.0 0.00 0.00 0.00 1008.5
20260902231026 57 116 5.0 10.0 0.00 0.00 0.00 1008.4
20260902230526 57 105 6.0 10.0 0.00 0.00 0.00 1008.5
20260902230054 57 115 4.0 12.0 0.00 0.00 0.00 1008.4
20260902225528 57 124 6.0 12.0 0.00 0.00 0.00 1008.5
20260902225027 57 99 8.0 12.0 0.00 0.00 0.00 1008.3
20260902224604 57 122 8.0 11.0 0.00 0.00 0.00 1008.3
20260902224027 57 106 7.0 11.0 0.00 0.00 0.00 1008.5
20260902223526 57 120 8.0 11.0 0.00 0.00 0.00 1008.5
20260902223108 57 121 8.0 11.0 0.00 0.00 0.00 1008.5
20260902222527 57 120 7.0 13.0 0.00 0.00 0.00 1008.4
20260902222029 57 117 9.0 13.0 0.00 0.00 0.00 1008.4
20260902221554 57 100 9.0 13.0 0.00 0.00 0.00 1008.5
20260902221027 57 101 10.0 14.0 0.00 0.00 0.00 1008.4
20260902220525 57 126 9.0 14.0 0.00 0.00 0.00 1008.3
20260902220053 57 133 9.0 13.0 0.00 0.00 0.00 1008.3
20260902215527 57 81 8.0 13.0 0.00 0.00 0.00 1008.2
20260902215028 56 111 9.0 14.0 0.00 0.00 0.00 1008.3
20260902214610 57 99 8.0 16.0 0.00 0.00 0.00 1008.3
20260902214026 57 135 10.0 16.0 0.00 0.00 0.00 1008.2
20260902213526 57 122 9.0 16.0 0.00 0.00 0.00 1008.2
20260902213052 56 110 11.0 16.0 0.00 0.00 0.00 1008.3
20260902212527 56 81 13.0 16.0 0.00 0.00 0.00 1008.2
20260902212027 57 101 11.0 17.0 0.00 0.00 0.00 1008.3
20260902211545 56 101 12.0 17.0 0.00 0.00 0.00 1008.2
20260902211026 56 122 10.0 14.0 0.00 0.00 0.00 1008.4
20260902210526 56 119 9.0 13.0 0.00 0.00 0.00 1008.2
20260902210047 56 117 11.0 15.0 0.00 0.00 0.00 1008.2
20260902205525 56 124 9.0 15.0 0.00 0.00 0.00 1008.2
20260902205026 56 121 10.0 16.0 0.00 0.00 0.00 1008.1
20260902204606 56 121 13.0 17.0 0.00 0.00 0.00 1007.9
20260902204027 56 116 12.0 17.0 0.00 0.00 0.00 1008.0
20260902203525 56 110 13.0 17.0 0.00 0.00 0.00 1007.8
20260902203049 56 113 11.0 15.0 0.00 0.00 0.00 1007.8
20260902202527 57 68 11.0 14.0 0.00 0.00 0.00 1007.8
20260902202029 57 103 9.0 14.0 0.00 0.00 0.00 1007.8
20260902201556 57 122 10.0 15.0 0.00 0.00 0.00 1007.9
20260902201029 57 110 11.0 15.0 0.00 0.00 0.00 1007.8
20260902200526 57 109 11.0 14.0 0.00 0.00 0.00 1008.0
20260902200051 57 109 11.0 14.0 0.00 0.00 0.00 1007.9
20260902195527 57 114 10.0 13.0 0.00 0.00 0.00 1007.9
20260902195027 58 109 5.0 10.0 0.00 0.00 0.00 1007.9
20260902194551 58 305 5.0 10.0 0.00 0.00 0.00 1008.1
20260902194027 58 121 5.0 11.0 0.00 0.00 0.00 1008.1
20260902193529 58 76 6.0 11.0 0.00 0.00 0.00 1008.0
20260902193046 58 108 4.0 10.0 0.00 0.00 0.00 1008.2
20260902192525 58 114 6.0 10.0 0.00 0.00 0.00 1008.3
20260902192030 58 53 4.0 8.0 0.00 0.00 0.00 1008.5
20260902191544 58 103 3.0 7.0 0.00 0.00 0.00 1008.4
20260902191034 59 124 1.0 3.0 0.00 0.00 0.00 1008.7
20260902190527 58 99 1.0 4.0 0.00 0.00 0.00 1008.5
20260902190053 58 286 1.0 4.0 0.00 0.00 0.00 1008.7
20260902185526 58 285 0.0 6.0 0.00 0.00 0.00 1008.8
20260902185028 57 311 1.0 6.0 0.00 0.00 0.00 1009.0
20260902184625 57 259 1.0 7.0 0.00 0.00 0.00 1009.1
20260902184028 57 216 3.0 8.0 0.00 0.00 0.00 1009.0
20260902183526 57 288 4.0 12.0 0.00 0.00 0.00 1008.8
20260902183044 57 218 7.0 13.0 0.00 0.00 0.00 1008.8
20260902182528 56 293 6.0 13.0 0.00 0.00 0.00 1009.1
20260902182026 56 304 7.0 12.0 0.00 0.00 0.00 1009.0
20260902181546 58 141 3.0 14.0 0.00 0.00 0.00 1009.0
20260902181030 57 126 5.0 14.0 0.00 0.00 0.00 1008.8
20260902180527 58 107 11.0 16.0 0.00 0.00 0.00 1008.7
20260902180058 58 145 6.0 16.0 0.00 0.00 0.00 1008.6
20260902175525 59 113 12.0 17.0 0.00 0.00 0.00 1008.3
20260902175028 59 114 13.0 18.0 0.00 0.00 0.00 1008.2
20260902174554 58 103 13.0 18.0 0.00 0.00 0.00 1008.2
20260902174027 58 119 13.0 18.0 0.00 0.00 0.00 1008.2
20260902173527 58 151 10.0 18.0 0.00 0.00 0.00 1008.3
20260902173048 60 141 10.0 18.0 0.00 0.00 0.00 1008.4
20260902172526 60 110 10.0 17.0 0.00 0.00 0.00 1008.1
20260902172026 60 114 10.0 20.0 0.00 0.00 0.00 1008.3
20260902171547 60 111 6.0 21.0 0.00 0.00 0.00 1008.2
20260902171025 60 106 11.0 23.0 0.00 0.00 0.00 1008.3
20260902170527 60 112 13.0 23.0 0.00 0.00 0.00 1008.2
20260902170043 61 108 15.0 23.0 0.00 0.00 0.00 1008.3
20260902165525 61 99 10.0 22.0 0.00 0.00 0.00 1007.9
20260902165026 61 103 12.0 25.0 0.00 0.00 0.00 1008.1
20260902164554 61 108 13.0 25.0 0.00 0.00 0.00 1008.1
20260902164028 61 103 10.0 23.0 0.00 0.00 0.00 1008.0
20260902163529 61 103 13.0 23.0 0.00 0.00 0.00 1008.0
20260902163047 61 103 11.0 24.0 0.00 0.00 0.00 1008.3
20260902162530 61 108 11.0 27.0 0.00 0.00 0.00 1008.1
20260902162026 61 81 15.0 27.0 0.00 0.00 0.00 1008.2
20260902161544 60 115 12.0 26.0 0.00 0.00 0.00 1008.2
20260902161029 60 103 10.0 29.0 0.00 0.00 0.00 1008.2
20260902160530 60 64 12.0 29.0 0.00 0.00 0.00 1008.3
20260902160050 60 101 12.0 23.0 0.00 0.00 0.00 1008.1
20260902155527 60 99 12.0 25.0 0.00 0.00 0.00 1008.2
20260902155030 60 118 11.0 25.0 0.00 0.00 0.00 1008.4
20260902154547 60 115 13.0 24.0 0.00 0.00 0.00 1008.5
20260902154028 60 105 11.0 22.0 0.00 0.00 0.00 1008.5
20260902153528 60 103 11.0 22.0 0.00 0.00 0.00 1008.5
20260902153044 60 130 13.0 21.0 0.00 0.00 0.00 1008.5
20260902152525 60 99 14.0 22.0 0.00 0.00 0.00 1008.7
20260902152025 60 115 14.0 22.0 0.00 0.00 0.00 1008.7
20260902151552 60 105 11.0 19.0 0.00 0.00 0.00 1008.7
20260902151029 60 105 13.0 19.0 0.00 0.00 0.00 1008.8
20260902150526 60 77 9.0 21.0 0.00 0.00 0.00 1008.7
20260902150050 60 49 10.0 21.0 0.00 0.00 0.00 1008.8
20260902145529 60 123 10.0 19.0 0.00 0.00 0.00 1009.0
20260902145026 60 74 10.0 19.0 0.00 0.00 0.00 1008.9
20260902144554 60 183 10.0 19.0 0.00 0.00 0.00 1009.0
20260902144028 60 111 10.0 19.0 0.00 0.00 0.00 1009.1
20260902143525 60 105 10.0 19.0 0.00 0.00 0.00 1009.2
20260902143044 60 111 11.0 17.0 0.00 0.00 0.00 1009.3
20260902142526 60 99 10.0 17.0 0.00 0.00 0.00 1009.2
20260902142025 60 100 11.0 17.0 0.00 0.00 0.00 1009.4
20260902141549 60 44 9.0 14.0 0.00 0.00 0.00 1009.5
20260902141025 60 122 7.0 13.0 0.00 0.00 0.00 1009.7
20260902140524 59 108 9.0 13.0 0.00 0.00 0.00 1009.7
20260902140046 59 111 8.0 12.0 0.00 0.00 0.00 1009.7
20260902135527 59 111 6.0 11.0 0.00 0.00 0.00 1009.8
20260902135024 59 130 7.0 13.0 0.00 0.00 0.00 1009.8
20260902134545 59 134 8.0 13.0 0.00 0.00 0.00 1010.0
20260902134025 59 120 8.0 10.0 0.00 0.00 0.00 1010.1
20260902133529 59 119 7.0 10.0 0.00 0.00 0.00 1010.0
20260902133057 59 117 6.0 9.0 0.00 0.00 0.00 1010.1
20260902132528 59 119 6.0 13.0 0.00 0.00 0.00 1010.2
20260902132028 59 123 8.0 13.0 0.00 0.00 0.00 1010.3
20260902131555 59 108 7.0 11.0 0.00 0.00 0.00 1010.3
20260902131026 59 105 2.0 6.0 0.00 0.00 0.00 1010.4
20260902130525 59 120 1.0 6.0 0.00 0.00 0.00 1010.5
20260902130042 59 128 2.0 5.0 0.00 0.00 0.00 1010.6
20260902125527 59 0 1.0 6.0 0.00 0.00 0.00 1010.6
20260902125026 59 114 1.0 6.0 0.00 0.00 0.00 1010.7
20260902124551 60 131 1.0 7.0 0.00 0.00 0.00 1010.7
20260902124027 60 116 2.0 7.0 0.00 0.00 0.00 1010.8
20260902123524 60 112 2.0 7.0 0.00 0.00 0.00 1011.0
20260902123045 60 120 3.0 5.0 0.00 0.00 0.00 1011.0
20260902122532 60 123 2.0 5.0 0.00 0.00 0.00 1011.0
20260902122025 60 99 2.0 5.0 0.00 0.00 0.00 1011.1
20260902121548 60 103 2.0 4.0 0.00 0.00 0.00 1011.1
20260902121026 59 201 1.0 3.0 0.00 0.00 0.00 1011.1
20260902120526 59 268 0.0 4.0 0.00 0.00 0.00 1011.2
20260902120054 59 227 1.0 5.0 0.00 0.00 0.00 1011.3
20260902115529 59 280 1.0 5.0 0.00 0.00 0.00 1011.1
20260902115029 59 261 0.0 4.0 0.00 0.00 0.00 1011.3
20260902114552 60 268 0.0 4.0 0.00 0.00 0.00 1011.4
20260902114026 59 302 0.0 4.0 0.00 0.00 0.00 1011.4
20260902113550 60 0 0.0 2.0 0.00 0.00 0.00 1011.3
20260902113053 60 0 0.0 8.0 0.00 0.00 0.00 1011.4
20260902112525 60 0 2.0 8.0 0.00 0.00 0.00 1011.4
20260902112026 60 124 2.0 5.0 0.00 0.00 0.00 1011.5
20260902111552 60 162 1.0 5.0 0.00 0.00 0.00 1011.4
20260902111026 60 299 1.0 6.0 0.00 0.00 0.00 1011.5
20260902110524 60 90 2.0 6.0 0.00 0.00 0.00 1011.5
20260902110045 60 234 1.0 4.0 0.00 0.00 0.00 1011.5
20260902105525 59 290 0.0 3.0 0.00 0.00 0.00 1011.5
20260902105028 59 278 0.0 8.0 0.00 0.00 0.00 1011.6
20260902104600 59 99 2.0 8.0 0.00 0.00 0.00 1011.5
20260902104024 60 120 5.0 8.0 0.00 0.00 0.00 1011.5
20260902103530 60 121 4.0 8.0 0.00 0.00 0.00 1011.6
20260902103042 60 114 3.0 6.0 0.00 0.00 0.00 1011.7
20260902102525 60 72 2.0 5.0 0.00 0.00 0.00 1011.7
20260902102025 59 66 2.0 4.0 0.00 0.00 0.00 1011.9
20260902101552 59 355 1.0 5.0 0.00 0.00 0.00 1011.8
20260902101025 59 76 2.0 6.0 0.00 0.00 0.00 1012.1
20260902100526 59 141 1.0 6.0 0.00 0.00 0.00 1012.0
20260902100046 59 268 3.0 6.0 0.00 0.00 0.00 1012.1
20260902095523 59 299 3.0 7.0 0.00 0.00 0.00 1012.0
20260902095025 59 302 2.0 7.0 0.00 0.00 0.00 1012.2
20260902094546 59 255 2.0 6.0 0.00 0.00 0.00 1012.2
20260902094027 59 176 2.0 5.0 0.00 0.00 0.00 1012.2
20260902093524 59 210 1.0 6.0 0.00 0.00 0.00 1012.2
20260902093050 59 236 2.0 7.0 0.00 0.00 0.00 1012.2
20260902092524 59 248 2.0 8.0 0.00 0.00 0.00 1012.4
20260902092025 59 276 4.0 8.0 0.00 0.00 0.00 1012.3
20260902091553 59 280 3.0 10.0 0.00 0.00 0.00 1012.2
20260902091024 59 290 3.0 10.0 0.00 0.00 0.00 1012.2
20260902090531 59 272 3.0 10.0 0.00 0.00 0.00 1012.3
20260902090047 59 272 5.0 9.0 0.00 0.00 0.00 1012.3
20260902085525 59 261 3.0 9.0 0.00 0.00 0.00 1012.3
20260902085024 60 263 3.0 11.0 0.00 0.00 0.00 1012.5
20260902084546 60 293 4.0 11.0 0.00 0.00 0.00 1012.4
20260902084024 60 322 3.0 8.0 0.00 0.00 0.00 1012.5
20260902083525 60 297 4.0 8.0 0.00 0.00 0.00 1012.5
20260902083056 60 0 1.0 8.0 0.00 0.00 0.00 1012.5
20260902082525 60 322 2.0 8.0 0.00 0.00 0.00 1012.4
20260902082027 60 283 1.0 7.0 0.00 0.00 0.00 1012.4
20260902081548 60 283 2.0 8.0 0.00 0.00 0.00 1012.4
20260902081025 60 279 2.0 8.0 0.00 0.00 0.00 1012.3
20260902080524 60 288 2.0 6.0 0.00 0.00 0.00 1012.4
20260902080048 60 286 2.0 6.0 0.00 0.00 0.00 1012.3
20260902075525 60 281 2.0 7.0 0.00 0.00 0.00 1012.5
20260902075026 60 297 1.0 7.0 0.00 0.00 0.00 1012.4
20260902074547 61 293 1.0 6.0 0.00 0.00 0.00 1012.6
20260902074025 60 302 2.0 6.0 0.00 0.00 0.00 1012.4
20260902073527 60 264 2.0 6.0 0.00 0.00 0.00 1012.6
20260902073054 60 291 1.0 5.0 0.00 0.00 0.00 1012.6
20260902072526 60 290 2.0 5.0 0.00 0.00 0.00 1012.6
20260902072027 61 141 1.0 3.0 0.00 0.00 0.00 1012.6
20260902071545 61 99 0.0 3.0 0.00 0.00 0.00 1012.7
20260902071026 60 183 1.0 3.0 0.00 0.00 0.00 1012.7
20260902070528 61 116 0.0 3.0 0.00 0.00 0.00 1012.9
20260902070049 61 0 0.0 4.0 0.00 0.00 0.00 1012.9
20260902065529 61 356 0.0 4.0 0.00 0.00 0.00 1013.0
20260902065027 60 120 1.0 4.0 0.00 0.00 0.00 1013.0
20260902064545 61 0 0.0 5.0 0.00 0.00 0.00 1013.0
20260902064028 61 129 2.0 5.0 0.00 0.00 0.00 1013.1
20260902063526 61 183 1.0 5.0 0.00 0.00 0.00 1013.1
20260902063046 61 116 1.0 7.0 0.00 0.00 0.00 1013.1
20260902062526 61 134 2.0 7.0 0.00 0.00 0.00 1013.1
20260902062024 61 155 2.0 6.0 0.00 0.00 0.00 1013.0
20260902061550 60 141 1.0 6.0 0.00 0.00 0.00 1013.0
20260902061024 60 183 3.0 6.0 0.00 0.00 0.00 1013.2
20260902060523 60 183 1.0 6.0 0.00 0.00 0.00 1013.2
20260902060044 60 183 2.0 6.0 0.00 0.00 0.00 1013.2
20260902055523 60 0 1.0 9.0 0.00 0.00 0.00 1013.4
20260902055025 60 183 2.0 9.0 0.00 0.00 0.00 1013.2
20260902054555 61 309 4.0 9.0 0.00 0.00 0.00 1013.4
20260902054033 61 283 3.0 8.0 0.00 0.00 0.00 1013.3
20260902053530 61 315 3.0 11.0 0.00 0.00 0.00 1013.4
20260902053057 61 295 4.0 11.0 0.00 0.00 0.00 1013.2
20260902052523 61 261 1.0 8.0 0.00 0.00 0.00 1013.2
20260902052023 61 285 3.0 9.0 0.00 0.00 0.00 1013.3
20260902051543 61 268 3.0 9.0 0.00 0.00 0.00 1013.1
20260902051025 61 291 3.0 10.0 0.00 0.00 0.00 1013.1
20260902050526 61 275 3.0 10.0 0.00 0.00 0.00 1013.0
20260902050059 61 311 4.0 10.0 0.00 0.00 0.00 1013.0
20260902045524 61 259 3.0 8.0 0.00 0.00 0.00 1013.0
20260902045028 61 290 3.0 7.0 0.00 0.00 0.00 1012.9
20260902044550 61 319 3.0 7.0 0.00 0.00 0.00 1013.0
20260902044029 61 141 2.0 7.0 0.00 0.00 0.00 1013.1
20260902043526 61 279 2.0 7.0 0.00 0.00 0.00 1013.2
20260902043053 62 286 2.0 7.0 0.00 0.00 0.00 1013.0
20260902042526 61 297 3.0 7.0 0.00 0.00 0.00 1012.9
20260902042025 61 291 1.0 9.0 0.00 0.00 0.00 1013.1
20260902041543 61 261 2.0 13.0 0.00 0.00 0.00 1012.9
20260902041025 61 286 4.0 13.0 0.00 0.00 0.00 1012.9
20260902040528 62 297 3.0 14.0 0.00 0.00 0.00 1012.9
20260902040055 62 305 6.0 14.0 0.00 0.00 0.00 1012.8
20260902035526 62 297 6.0 13.0 0.00 0.00 0.00 1012.8
20260902035023 62 173 4.0 12.0 0.00 0.00 0.00 1012.9
20260902034549 62 292 5.0 12.0 0.00 0.00 0.00 1012.7
20260902034028 62 290 5.0 10.0 0.00 0.00 0.00 1012.7
20260902033527 62 243 6.0 10.0 0.00 0.00 0.00 1012.7
20260902033046 63 288 4.0 12.0 0.00 0.00 0.00 1012.5
20260902032525 63 241 2.0 12.0 0.00 0.00 0.00 1012.6
20260902032025 63 261 6.0 12.0 0.00 0.00 0.00 1012.5
20260902031547 63 292 2.0 9.0 0.00 0.00 0.00 1012.6
20260902031029 63 288 4.0 9.0 0.00 0.00 0.00 1012.5
20260902030525 63 278 3.0 10.0 0.00 0.00 0.00 1012.7
20260902030043 63 55 5.0 10.0 0.00 0.00 0.00 1012.5
20260902025524 63 261 2.0 10.0 0.00 0.00 0.00 1012.7
20260902025027 63 277 4.0 10.0 0.00 0.00 0.00 1012.7
20260902024549 64 293 4.0 10.0 0.00 0.00 0.00 1012.5
20260902024026 64 120 3.0 10.0 0.00 0.00 0.00 1012.5
20260902023530 64 285 2.0 8.0 0.00 0.00 0.00 1012.5
20260902023048 64 284 1.0 8.0 0.00 0.00 0.00 1012.2
20260902022526 64 268 3.0 8.0 0.00 0.00 0.00 1012.4
20260902022033 64 22 2.0 6.0 0.00 0.00 0.00 1012.4
20260902021544 64 275 1.0 6.0 0.00 0.00 0.00 1012.5
20260902021025 65 292 1.0 5.0 0.00 0.00 0.00 1012.4
20260902020526 65 285 2.0 5.0 0.00 0.00 0.00 1012.4
20260902020043 65 311 1.0 8.0 0.00 0.00 0.00 1012.3
20260902015524 65 295 3.0 14.0 0.00 0.00 0.00 1012.3
20260902015026 65 299 3.0 17.0 0.00 0.00 0.00 1012.3
20260902014550 65 338 6.0 17.0 0.00 0.00 0.00 1012.3
20260902014025 65 307 9.0 17.0 0.00 0.00 0.00 1012.2
20260902013524 65 301 7.0 15.0 0.00 0.00 0.00 1012.3
20260902013048 65 304 7.0 15.0 0.00 0.00 0.00 1012.3
20260902012528 65 295 6.0 14.0 0.00 0.00 0.00 1012.3
20260902012028 65 288 7.0 14.0 0.00 0.00 0.00 1012.3
20260902011610 65 279 6.0 12.0 0.00 0.00 0.00 1012.3
20260902011024 66 291 4.0 11.0 0.00 0.00 0.00 1012.3
20260902010524 66 116 4.0 10.0 0.00 0.00 0.00 1012.2
20260902010047 66 283 5.0 10.0 0.00 0.00 0.00 1012.2
20260902005527 66 268 5.0 10.0 0.00 0.00 0.00 1011.9
20260902005025 66 279 3.0 9.0 0.00 0.00 0.00 1012.0
20260902004547 66 311 2.0 5.0 0.00 0.00 0.00 1012.1
20260902004032 66 286 1.0 5.0 0.00 0.00 0.00 1012.2
20260902003523 67 255 0.0 5.0 0.00 0.00 0.00 1012.2
20260902003100 67 201 2.0 5.0 0.00 0.00 0.00 1012.1
20260902002523 68 356 0.0 3.0 0.00 0.00 0.00 1012.1
20260902002027 67 317 1.0 4.0 0.00 0.00 0.00 1012.1
20260902001549 67 299 1.0 4.0 0.00 0.00 0.00 1012.0
20260902001026 67 288 1.0 4.0 0.00 0.00 0.00 1012.1
20260902000529 69 280 1.0 4.0 0.00 0.00 0.00 1012.1
20260902000047 69 311 1.0 4.0 0.00 0.00 0.00 1012.0
20260901235527 70 286 0.0 4.0 0.00 0.00 0.00 1012.0
20260901235025 69 252 1.0 5.0 0.00 0.00 0.00 1012.1